Stations météo

réclame
Mon MeteoGroup
Augsburg, Allemagne (10852): Température de l'air & dewpoint: 14.09.2018 18:00:00 - 20.09.2018 18:00:00 (CEST)Augsburg, Allemagne (10852): Température de l'air 5cm & Température de l'air -5cm: 14.09.2018 18:00:00 - 20.09.2018 18:00:00 (CEST)Augsburg, Allemagne (10852): Température de l'air -20cm: 14.09.2018 18:00:00 - 20.09.2018 18:00:00 (CEST)Augsburg, Allemagne (10852): Vitesse du vent & gusts: 14.09.2018 18:00:00 - 20.09.2018 18:00:00 (CEST)Augsburg, Allemagne (10852): Direction du vent: 14.09.2018 18:00:00 - 20.09.2018 18:00:00 (CEST)Augsburg, Allemagne (10852): reduced air pressure: 14.09.2018 18:00:00 - 20.09.2018 18:00:00 (CEST)Augsburg, Allemagne (10852): visibility: 14.09.2018 18:00:00 - 20.09.2018 18:00:00 (CEST)Augsburg, Allemagne (10852): Ensoleillement: 14.09.2018 18:00:00 - 20.09.2018 18:00:00 (CEST)Augsburg, Allemagne (10852): Quantités de précipitations: 14.09.2018 18:00:00 - 20.09.2018 18:00:00 (CEST)
Date & Time tt [°C] td [°C] tt 5cm [°C] tt -5cm [°C] tt -20cm [°C] ff [km/h] ff [knt] fx [km/h] fx [knt] dd ppp [hPa] vv [km] sd [min] rr [mm]
20.09.2018 18:00:00 26,2 11,6 25,1 28,4 22,3 9 5 19 11 ESE 1015,9 10 60 0,0
20.09.2018 17:00:00 26,8 10,6 27,8 30,0 21,7 9 5 16 9 S 1016,3 24 60 0,0
20.09.2018 16:00:00 26,9 11,4 29,3 30,7 21,0 6 3 16 9 ESE 1016,8 23 60 0,0
20.09.2018 15:00:00 26,9 12,2 29,8 30,4 20,2 11 6 20 11 SE 1017,3 26 60 0,0
20.09.2018 14:00:00 26,3 12,8 29,8 29,4 19,4 12 6 20 11 SSE 1018,0 16 60 0,0
20.09.2018 13:00:00 25,6 13,5 29,2 27,5 18,6 10 5 21 11 SSE 1018,8 23 60 0,0
20.09.2018 12:00:00 24,0 13,4 29,2 24,6 18,1 3 2 9 5 W 1019,7 19 60 0,0
20.09.2018 11:00:00 21,7 13,4 24,7 21,3 17,8 6 3 11 6 S 1020,5 22 60 0,0
20.09.2018 10:00:00 18,7 13,2 21,0 18,2 17,8 5 3 9 5 SSE 1021,2 10 60 0,0
20.09.2018 09:00:00 15,9 13,2 16,9 15,7 17,9 8 4 15 8 S 1021,6 8 60 0,0
20.09.2018 08:00:00 14,0 12,5 12,7 14,3 18,2 9 5 12 7 SSE 1021,8 11 19 0,0
20.09.2018 07:00:00 13,3 12,4 11,6 14,4 18,5 10 5 12 7 SSE 1021,6 11 0 0,0
20.09.2018 06:00:00 13,1 12,4 11,3 14,7 18,8 8 5 13 7 SSE 1021,6 9 0 0,0
20.09.2018 05:00:00 13,6 12,7 12,1 15,1 19,1 11 6 14 8 S 1021,5 10 0 0,0
20.09.2018 04:00:00 13,6 13,3 10,3 15,4 19,4 5 3 9 5 SSE 1021,6 10 0 0,0
20.09.2018 03:00:00 14,0 13,6 10,4 15,9 19,8 5 3 9 5 ESE 1021,5 10 0 0,0
20.09.2018 02:00:00 14,8 13,8 11,6 16,4 20,1 9 5 8 4 SE 1021,4 10 0 0,0
20.09.2018 01:00:00 14,7 13,8 11,8 16,9 20,5 5 3 9 5 SE 1021,3 12 0 0,0
20.09.2018 00:00:00 13,9 12,6 11,4 17,6 20,9 7 4 10 5 SSE 1021,9 14 0 0,0
19.09.2018 23:00:00 15,2 13,7 11,8 18,4 21,2 6 4 8 4 S 1021,7 16 0 0,0
19.09.2018 22:00:00 16,7 14,3 12,4 19,4 21,5 5 3 6 3 SE 1021,4 10 0 0,0
19.09.2018 21:00:00 18,1 14,4 13,5 20,7 21,8 4 2 13 7 ESE 1020,9 10 0 0,0
19.09.2018 20:00:00 19,7 14,9 15,3 22,3 21,9 4 2 8 5 SSE 1020,2 18 0 0,0
19.09.2018 19:00:00 22,1 15,5 19,3 24,4 21,8 6 3 13 7 E 1019,6 23 43 0,0
19.09.2018 18:00:00 24,1 15,0 23,3 26,7 21,4 10 6 16 9 E 1018,8 19 60 0,0
19.09.2018 17:00:00 25,2 14,9 25,9 28,2 20,8 9 5 19 10 NE 1018,7 22 60 0,0
19.09.2018 16:00:00 26,3 14,5 29,5 28,3 20,2 4 2 18 10 - 1018,6 10 60 0,0
19.09.2018 15:00:00 25,4 13,2 29,7 27,2 19,6 5 3 19 10 WNW 1019,2 10 60 0,0
19.09.2018 14:00:00 24,5 12,7 27,3 24,6 19,3 9 5 15 8 S 1019,7 10 51 0,0
19.09.2018 13:00:00 20,0 17,0 21,7 21,0 19,0 5 3 16 9 S 1020,9 10 6 0,6
19.09.2018 12:00:00 18,5 15,6 18,6 21,4 18,8 13 7 18 10 NNW 1022,0 10 0 0,1
19.09.2018 11:00:00 20,5 13,5 23,0 21,8 18,5 8 4 12 7 S 1021,6 10 37 0,0
19.09.2018 10:00:00 19,8 13,6 22,5 19,2 18,5 5 3 11 6 SSW 1021,3 18 56 0,0
19.09.2018 09:00:00 16,5 13,8 16,8 16,7 18,6 8 4 11 6 S 1021,5 17 56 0,0
19.09.2018 08:00:00 14,6 13,2 13,6 15,4 18,9 9 5 13 7 SSE 1021,5 10 22 0,0
19.09.2018 07:00:00 14,3 13,2 13,3 15,4 19,2 10 5 13 7 SSE 1021,3 20 0 0,0
19.09.2018 06:00:00 14,2 12,5 11,3 15,8 19,5 9 5 19 10 ENE 1021,3 22 0 0,0
19.09.2018 05:00:00 14,2 12,6 13,0 16,2 19,9 11 6 15 8 S 1020,3 23 0 0,0
19.09.2018 04:00:00 14,8 12,8 13,2 16,8 20,2 11 6 18 10 SSE 1020,2 19 0 0,0
19.09.2018 03:00:00 14,4 12,5 11,0 17,5 20,6 0 0 9 5 N 1020,2 18 0 0,0
19.09.2018 02:00:00 16,6 12,8 13,2 18,5 20,8 6 3 15 8 SSE 1019,3 19 0 0,0
19.09.2018 01:00:00 17,7 12,9 16,8 19,3 21,1 9 5 17 9 SE 1018,9 10 0 0,0
19.09.2018 00:00:00 18,5 12,9 17,6 19,8 21,4 9 5 20 11 ESE 1018,8 10 0 0,0
18.09.2018 23:00:00 19,2 12,7 18,1 20,4 21,7 15 8 25 13 SSW 1018,7 10 0 0,0
18.09.2018 22:00:00 18,9 13,2 17,9 21,2 22,0 13 7 26 14 S 1018,2 24 0 0,0
18.09.2018 21:00:00 20,1 12,8 19,2 22,1 22,2 14 8 38 21 SSW 1017,5 24 0 0,0
18.09.2018 20:00:00 22,2 13,2 21,1 23,4 22,3 19 10 27 15 SW 1016,2 20 3 0,0
18.09.2018 19:00:00 23,5 14,6 22,3 24,9 22,2 15 8 25 13 SSW 1015,3 10 0 0,0
18.09.2018 18:00:00 24,0 14,2 22,8 27,7 21,9 19 10 29 16 WSW 1015,0 18 51 0,0
18.09.2018 17:00:00 27,2 11,0 28,3 29,6 21,3 11 6 23 13 WSW 1014,6 22 60 0,0
18.09.2018 16:00:00 27,4 12,9 30,0 30,3 20,5 13 7 25 14 W 1014,8 20 60 0,0
18.09.2018 15:00:00 26,6 13,0 29,4 30,1 19,7 17 9 28 15 SW 1015,5 16 60 0,0
18.09.2018 14:00:00 26,6 14,9 30,9 28,9 18,9 8 5 18 10 W 1015,8 21 60 0,0
18.09.2018 13:00:00 25,1 14,8 30,2 26,8 18,1 8 4 17 9 WSW 1016,5 18 60 0,0
18.09.2018 12:00:00 23,7 15,3 29,2 24,2 17,6 4 2 12 7 - 1017,1 10 60 0,0
18.09.2018 11:00:00 21,2 15,8 25,8 21,0 17,3 9 5 16 9 W 1017,6 13 60 0,0
18.09.2018 10:00:00 18,7 14,4 21,1 18,1 17,2 2 1 7 4 NNW 1018,1 8 60 0,0
18.09.2018 09:00:00 15,7 13,9 16,2 15,2 17,4 4 2 9 5 SE 1018,6 6 60 0,0
18.09.2018 08:00:00 12,1 12,0 10,9 13,5 17,7 5 3 7 4 S 1019,0 2,6 19 0,0
18.09.2018 07:00:00 9,6 9,2 7,6 13,5 18,0 0 0 7 4 N 1019,3 6 0 0,0
18.09.2018 06:00:00 11,5 11,5 9,0 13,9 18,3 4 2 6 4 E 1018,5 10 0 0,0
18.09.2018 05:00:00 11,2 11,2 8,6 14,3 18,6 0 0 5 3 N 1018,7 0,2 0 0,0
18.09.2018 04:00:00 12,5 12,5 9,6 14,8 19,0 4 2 5 3 ESE 1018,4 0,2 0 0,0
18.09.2018 03:00:00 12,2 12,2 9,5 15,3 19,4 0 0 5 3 N 1018,5 0,1 0 0,0
18.09.2018 02:00:00 12,6 12,6 9,7 16,0 19,8 4 2 6 3 ESE 1018,6 10 0 0,0
18.09.2018 01:00:00 13,8 13,8 10,5 16,7 20,2 4 2 5 3 E 1018,6 8 0 0,0
18.09.2018 00:00:00 14,5 13,7 11,2 17,5 20,5 0 0 4 2 N 1018,6 11 0 0,0
17.09.2018 23:00:00 15,7 14,8 11,8 18,4 20,9 0 0 4 2 N 1018,7 12 0 0,0
17.09.2018 22:00:00 17,0 14,5 12,7 19,5 21,2 0 0 10 6 N 1018,7 10 0 0,0
17.09.2018 21:00:00 19,1 15,1 14,8 20,9 21,5 5 3 10 6 ESE 1018,1 10 0 0,0
17.09.2018 20:00:00 19,9 15,5 16,4 22,7 21,5 8 4 16 8 SE 1017,9 15 13 0,0
17.09.2018 19:00:00 23,1 15,2 20,8 25,1 21,3 8 4 13 7 ESE 1017,2 10 60 0,0
17.09.2018 18:00:00 25,1 14,2 25,1 27,1 20,9 6 4 11 6 SW 1016,9 22 58 0,0
17.09.2018 17:00:00 25,4 12,1 27,7 28,6 20,3 5 3 16 9 W 1017,2 10 60 0,0
17.09.2018 16:00:00 25,0 12,6 29,6 28,9 19,6 6 3 16 9 W 1017,8 18 60 0,0
17.09.2018 15:00:00 24,6 13,5 27,7 28,1 18,8 5 3 15 8 - 1018,5 10 59 0,0
17.09.2018 14:00:00 23,1 13,8 24,8 27,1 18,0 6 4 12 6 NNW 1019,4 17 58 0,0
17.09.2018 13:00:00 22,9 15,3 29,7 25,3 17,3 6 3 12 7 NNW 1019,9 14 60 0,0
17.09.2018 12:00:00 21,5 14,8 25,5 23,3 16,7 4 2 10 5 NE 1020,5 10 60 0,0
17.09.2018 11:00:00 20,2 15,1 26,0 20,5 16,4 6 3 11 6 W 1021,2 9 60 0,0
17.09.2018 10:00:00 18,1 15,5 20,4 17,3 16,3 8 5 12 6 SSE 1021,6 7 60 0,0
17.09.2018 09:00:00 15,2 14,5 15,9 14,4 16,4 8 4 10 5 S 1022,3 4,5 60 0,0
17.09.2018 08:00:00 11,4 11,4 10,4 12,5 16,6 4 2 5 3 ESE 1023,2 1,5 16 0,0
17.09.2018 07:00:00 10,0 10,0 7,5 12,6 16,9 3 2 4 2 SSE 1023,1 0,2 0 0,0
17.09.2018 06:00:00 10,5 10,5 7,7 13,0 17,2 2 1 6 3 ESE 1022,7 0,1 0 0,0
17.09.2018 05:00:00 10,5 10,5 8,2 13,5 17,5 0 0 4 2 N 1022,5 0,1 0 0,0
17.09.2018 04:00:00 11,3 11,3 7,9 14,1 17,8 3 2 8 4 S 1022,1 0,2 0 0,0
17.09.2018 03:00:00 13,5 13,3 10,7 14,8 18,0 4 2 6 3 SE 1021,8 8 0 0,0
17.09.2018 02:00:00 12,8 12,5 11,3 15,2 18,3 8 4 5 3 SE 1022,1 10 0 0,0
17.09.2018 01:00:00 13,3 12,9 11,0 15,7 18,6 4 2 5 3 E 1022,3 11 0 0,0
17.09.2018 00:00:00 13,9 13,4 11,8 16,5 18,8 5 3 6 3 SE 1022,1 13 0 0,0
16.09.2018 23:00:00 15,7 14,3 14,2 17,4 19,0 3 2 6 3 E 1021,8 12 0 0,0
16.09.2018 22:00:00 16,0 14,2 15,3 17,8 19,2 2 1 8 4 E 1021,6 10 0 0,0
16.09.2018 21:00:00 16,0 13,9 13,7 18,2 19,4 4 2 9 5 ENE 1021,5 10 0 0,0
16.09.2018 20:00:00 17,3 14,5 14,7 19,4 19,4 5 3 8 5 ENE 1020,9 13 0 0,0
16.09.2018 19:00:00 20,5 14,2 17,5 20,9 19,3 5 3 14 7 SE 1019,9 16 0 0,0
16.09.2018 18:00:00 21,5 12,9 20,7 22,3 19,0 10 5 16 9 SE 1019,6 16 51 0,0
16.09.2018 17:00:00 21,9 12,9 22,5 23,7 18,6 11 6 23 12 SE 1019,8 17 60 0,0
16.09.2018 16:00:00 22,0 12,5 24,1 24,1 18,0 11 6 20 11 SSE 1020,3 16 60 0,0
16.09.2018 15:00:00 21,8 12,6 24,1 23,7 17,4 11 6 23 12 SE 1020,8 10 60 0,0
16.09.2018 14:00:00 21,4 11,5 24,3 23,1 16,8 15 8 25 13 SSE 1021,4 7 60 0,0
16.09.2018 13:00:00 20,8 11,9 23,5 21,6 16,2 16 9 27 15 SE 1021,8 7 60 0,0
16.09.2018 12:00:00 19,2 10,3 21,8 20,2 15,7 13 7 25 13 ESE 1022,8 10 60 0,0
16.09.2018 11:00:00 17,8 10,5 20,2 18,3 15,4 4 2 21 11 - 1023,3 10 60 0,0
16.09.2018 10:00:00 14,9 8,9 18,7 15,2 15,3 2 1 4 2 NW 1024,0 14 60 0,0
16.09.2018 09:00:00 11,6 8,5 12,2 12,1 15,5 4 2 4 2 - 1024,6 10 60 0,0
16.09.2018 08:00:00 7,0 7,0 7,1 10,1 15,8 3 2 5 3 E 1025,7 3,5 19 0,0
16.09.2018 07:00:00 5,8 5,8 3,7 10,1 16,2 2 1 4 2 - 1025,7 0,5 0 0,0
16.09.2018 06:00:00 6,1 6,1 3,9 10,5 16,6 3 1 4 2 N 1025,8 0,3 0 0,0
16.09.2018 05:00:00 6,7 6,7 3,8 11,0 16,9 3 1 6 4 W 1026,0 0,6 0 0,0
16.09.2018 04:00:00 8,1 7,7 4,9 11,5 17,3 4 2 8 5 NW 1026,0 9 0 0,0
16.09.2018 03:00:00 9,2 8,8 5,4 12,0 17,8 5 3 7 4 N 1026,2 8 0 0,0
16.09.2018 02:00:00 9,1 8,7 6,1 12,6 18,2 4 2 7 4 W 1026,6 7 0 0,0
16.09.2018 01:00:00 10,7 9,7 7,3 13,2 18,6 5 3 8 4 WNW 1026,6 9 0 0,0
16.09.2018 00:00:00 9,7 9,5 7,2 14,0 19,1 0 0 4 2 N 1026,6 10 0 0,0
15.09.2018 23:00:00 9,8 9,0 7,8 14,9 19,5 0 0 9 5 N 1026,5 10 0 0,0
15.09.2018 22:00:00 10,7 9,8 8,4 16,0 19,9 4 2 7 4 ENE 1026,1 11 0 0,0
15.09.2018 21:00:00 12,2 10,5 9,8 17,3 20,2 5 3 8 5 ENE 1025,5 10 0 0,0
15.09.2018 20:00:00 14,2 11,9 11,6 19,0 20,4 7 4 9 5 E 1024,4 12 12 0,0
15.09.2018 19:00:00 17,9 10,5 15,3 21,0 20,4 8 4 12 7 NE 1023,1 14 60 0,0
15.09.2018 18:00:00 19,4 10,2 19,2 22,6 20,2 9 5 18 10 NNE 1022,6 16 60 0,0
15.09.2018 17:00:00 20,3 8,3 22,1 23,6 19,9 9 5 21 11 NNW 1022,5 15 59 0,0
15.09.2018 16:00:00 20,6 11,1 24,1 24,1 19,5 9 5 24 13 WNW 1022,5 14 48 0,0
15.09.2018 15:00:00 19,9 10,9 24,7 24,4 19,1 13 7 22 12 WNW 1023,0 11 56 0,0
15.09.2018 14:00:00 18,8 10,8 24,9 23,0 18,6 11 6 17 9 NW 1023,4 10 26 0,0
15.09.2018 13:00:00 18,7 12,2 25,7 22,1 18,2 8 5 19 10 N 1023,4 10 46 0,0
15.09.2018 12:00:00 17,7 12,0 21,7 21,0 17,9 14 8 19 10 NNW 1023,6 11 43 0,0
15.09.2018 11:00:00 16,8 13,2 21,8 18,7 17,8 13 7 20 11 NW 1023,7 9 20 0,0
15.09.2018 10:00:00 16,3 13,9 19,1 16,9 17,8 13 7 19 10 N 1023,5 9 11 0,0
15.09.2018 09:00:00 15,1 14,0 15,1 15,8 17,9 11 6 15 8 NW 1023,3 6 0 0,0
15.09.2018 08:00:00 13,7 13,7 13,5 15,2 18,1 3 1 5 3 ENE 1022,9 2,8 0 0,0
15.09.2018 07:00:00 13,2 13,2 12,9 14,8 18,4 2 1 4 2 - 1022,0 6 0 0,0
15.09.2018 06:00:00 11,7 11,7 10,0 14,8 18,7 4 2 13 7 - 1022,0 7 0 0,0
15.09.2018 05:00:00 13,2 13,2 10,3 15,4 19,0 3 2 13 7 ENE 1021,3 2,0 0 0,0
15.09.2018 04:00:00 13,5 13,5 10,9 16,1 19,2 4 2 6 3 SW 1020,9 0,5 0 0,0
15.09.2018 03:00:00 14,8 14,6 14,1 16,7 19,4 5 3 9 5 W 1020,7 10 0 0,0
15.09.2018 02:00:00 15,0 15,0 14,7 16,9 19,7 4 2 8 4 S 1020,4 9 0 0,0
15.09.2018 01:00:00 13,7 13,7 13,5 16,8 20,0 0 0 5 3 N 1020,7 10 0 0,0
15.09.2018 00:00:00 13,8 13,7 11,6 17,2 20,3 4 2 5 3 E 1020,5 5 0 0,0
14.09.2018 23:00:00 15,7 15,0 12,9 18,2 20,6 3 2 6 3 WNW 1020,1 11 0 0,0
14.09.2018 22:00:00 15,6 15,0 15,1 18,6 20,9 6 4 7 4 NE 1019,9 9 0 0,0
14.09.2018 21:00:00 16,1 14,9 14,4 19,4 21,2 4 2 9 5 E 1019,8 10 0 0,0
14.09.2018 20:00:00 17,2 15,7 16,5 20,9 21,3 9 5 10 5 E 1018,9 11 0 0,0
14.09.2018 19:00:00 18,8 15,2 17,0 22,2 21,3 5 3 12 6 E 1018,5 14 6 0,0
14.09.2018 18:00:00 19,7 14,3 20,1 24,3 21,1 8 4 11 6 NE 1018,2 18 48 0,0

tt = Température de l'air
td = dewpoint
tt 5cm = Température de l'air 5cm
tt -5cm = Température de l'air -5cm
tt -20cm = Température de l'air -20cm
ff = Vitesse du vent
fx = gusts
dd = Direction du vent
ppp = reduced air pressure
vv = visibility
sd = Ensoleillement
rr = Quantités de précipitations

stations d'obs. à proximité